This is the latest recevied weather packets stored in our database for station/object WX1N. If no packets are shown the sender has not sent any weather packets the latest 1 day(s).
| Time | Temp. | Humidity | Pressure | Rain* | Wind** | Luminosity | Snow |
|---|---|---|---|---|---|---|---|
| 1778007903 | 27.22° C | 34% | 1001.6 hPa | 0 mm | 0 m/s | - | - |
| 1778007603 | 27.22° C | 36% | 1001.7 hPa | 0 mm | 0 m/s | - | - |
| 1778007303 | 27.22° C | 36% | 1001.7 hPa | 0 mm | 0 m/s | - | - |
| 1778007004 | 27.22° C | 36% | 1001.8 hPa | 0 mm | 0 m/s | - | - |
| 1778006703 | 27.22° C | 35% | 1001.8 hPa | 0 mm | 0 m/s | - | - |
| 1778006404 | 26.67° C | 37% | 1001.8 hPa | 0 mm | 0 m/s | - | - |
| 1778006103 | 26.67° C | 36% | 1002 hPa | 0 mm | 0 m/s | - | - |
| 1778005804 | 26.67° C | 37% | 1002 hPa | 0 mm | 0 m/s | - | - |
| 1778005504 | 26.67° C | 38% | 1002 hPa | 0 mm | 0 m/s | - | - |
| 1778005203 | 26.67° C | 37% | 1002.2 hPa | 0 mm | 0 m/s | - | - |
| 1778004904 | 26.67° C | 36% | 1002.4 hPa | 0 mm | 0 m/s | - | - |
| 1778004603 | 27.22° C | 34% | 1002.5 hPa | 0 mm | 0 m/s | - | - |
| 1778004303 | 27.22° C | 34% | 1002.6 hPa | 0 mm | 0 m/s | - | - |
| 1778004004 | 27.22° C | 35% | 1002.6 hPa | 0 mm | 0 m/s | - | - |
| 1778003703 | 27.22° C | 35% | 1002.7 hPa | 0 mm | 0 m/s | - | - |
| 1778003404 | 26.67° C | 35% | 1002.8 hPa | 0 mm | 0 m/s | - | - |
| 1778003103 | 26.67° C | 40% | 1002.8 hPa | 0 mm | 0 m/s | - | - |
| 1778002803 | 26.67° C | 40% | 1003 hPa | 0 mm | 0 m/s | - | - |
| 1778002503 | 26.67° C | 42% | 1002.9 hPa | 0 mm | 0 m/s | - | - |
| 1778002203 | 26.67° C | 38% | 1002.9 hPa | 0 mm | 0 m/s | - | - |
| 1778001904 | 26.11° C | 41% | 1003.1 hPa | 0 mm | 0 m/s | - | - |
| 1778001603 | 26.67° C | 42% | 1003.1 hPa | 0 mm | 0 m/s | - | - |
| 1778001304 | 26.11° C | 42% | 1003.1 hPa | 0 mm | 0 m/s | - | - |
| 1778001003 | 26.11° C | 45% | 1003.2 hPa | 0 mm | 0 m/s | - | - |
| 1778000704 | 26.11° C | 44% | 1003.3 hPa | 0 mm | 0 m/s | - | - |
* Rain latest hour (hover to see other rain measurements)
** Current wind speed in m/s (hover to see current wind gust speed)